3,000 Hits




Click to Select an Era


Hit Date Game Month DOW City Day/Night Type Field Pos Bat Pos Opponent Inning Out OnBase RBI Pitcher
1532 04/09/91   4 Tue SD N 1B RF 3 SF 3 1 0 0 John Burkett
1533 04/09/91   4 Tue SD N 1B RF 3 SF 8 1 1 1 Trevor Wilson
1534 04/10/91   4 Wed SD N 1B RF 3 SF 1 2 0 0 Bud Black
1535 04/11/91   4 Thu SD D 3B RF 3 SF 1 2 0 0 Mike LaCoss
1536 04/11/91   4 Thu SD D 1B RF 3 SF 3 2 0 0 Mike LaCoss
1537 04/12/91   4 Fri LA D 1B RF 3 LA 1 2 0 0 Bob Ojeda
1538 04/13/91   4 Sat LA N 1B RF 3 LA 1 0 2 0 Kevin Gross
1539 04/13/91   4 Sat LA N 1B RF 3 LA 2 1 1 1 Kevin Gross
1540 04/13/91   4 Sat LA N 2B RF 3 LA 6 2 0 0 Mike Hartley
1541 04/15/91   4 Mon SD N 1B RF 3 CIN 5 1 3 1 Jose Rijo
1542 04/15/91   4 Mon SD N 1B RF 3 CIN 10 0 0 0 Rob Dibble
1543 04/16/91   4 Tue SD N 1B RF 3 CIN 3 1 1 0 Norm Charlton
1544 04/18/91   4 Thu SD D 2B RF 3 LA 4 2 2 2 Kevin Gross
1545 04/19/91   4 Fri SD N 1B RF 3 LA 9 1 0 0 Mike Morgan
1546 04/20/91   4 Sat SD N 1B RF 3 LA 4 1 1 0 Tim Belcher
1547 04/21/91   4 Sun SD D 1B RF 3 LA 1 1 1 0 Ramon Martinez
1548 04/21/91   4 Sun SD D 1B RF 3 LA 3 2 0 0 Ramon Martinez
1549 04/22/91   4 Mon SF N 3B RF 3 SF 3 2 1 1 Kelly Downs
1550 04/22/91   4 Mon SF N 1B RF 3 SF 5 0 0 0 Trevor Wilson
1551 04/22/91   4 Mon SF N 1B RF 3 SF 7 1 1 0 Trevor Wilson
1552 04/22/91   4 Mon SF N 2B RF 3 SF 8 2 1 1 Rick Reuschel
1553 04/23/91   4 Tue SF N 3B RF 3 SF 1 0 2 2 Scott Garrelts
1554 04/24/91   4 Wed SF D 1B RF 3 SF 6 1 0 0 John Burkett
1555 04/26/91   4 Fri PHI N 1B RF 3 PHI 5 0 0 0 Jose DeJesus
1556 04/26/91   4 Fri PHI N 1B RF 3 PHI 7 2 1 1 Jose DeJesus
1557 04/27/91   4 Sat PHI N 2B RF 3 PHI 1 2 0 0 Danny Cox
1558 04/27/91   4 Sat PHI N 1B RF 3 PHI 9 1 0 0 Roger McDowell
1559 04/28/91   4 Sun PHI N 1B RF 3 PHI 4 1 0 0 Jason Grimsley
1560 05/01/91   5 Wed NYM N 1B RF 3 NYM 6 1 0 0 Frank Viola
1561 05/01/91   5 Wed NYM N 1B RF 3 NYM 7 0 1 0 Frank Viola
1562 05/04/91   5 Sat MTL D 1B RF 3 MTL 1 1 1 1 Rick Mahler
1563 05/04/91   5 Sat MTL D 1B RF 3 MTL 8 0 1 0 Steve Frey
1564 05/04/91   5 Sat MTL D 1B RF 3 MTL 13 1 1 1 Jeff Fassero
1565 05/05/91   5 Sun MTL D 3B RF 3 MTL 4 1 0 0 Brian Barnes
1566 05/07/91   5 Tue SD N 1B RF 3 PHI 1 2 0 0 Jose DeJesus
1567 05/07/91   5 Tue SD N 1B RF 3 PHI 5 1 2 1 Jose DeJesus
1568 05/08/91   5 Wed SD N 2B RF 3 PHI 3 2 0 0 Danny Cox
1569 05/11/91   5 Sat SD N 1B RF 3 MTL 1 2 0 0 Dennis Martinez
1570 05/12/91   5 Sun SD D 2B RF 3 MTL 6 0 0 0 Chris Nabholz
1571 05/13/91   5 Mon SD N HR RF 3 NYM 1 1 1 2 David Cone
1572 05/13/91   5 Mon SD N 1B RF 3 NYM 8 1 0 0 Doug Simons
1573 05/14/91   5 Tue SD N 1B RF 3 NYM 3 2 0 0 Wally Whitehurs
1574 05/15/91   5 Wed SD D 1B RF 3 NYM 6 2 1 0 Dwight Gooden
1575 05/17/91   5 Fri CIN N 1B RF 3 CIN 1 1 1 1 Jose Rijo
1576 05/17/91   5 Fri CIN N 1B RF 3 CIN 4 0 0 0 Jose Rijo
1577 05/17/91   5 Fri CIN N 1B RF 3 CIN 6 0 0 0 Jose Rijo
1578 05/18/91   5 Sat CIN N 1B RF 3 CIN 1 2 0 0 Jack Armstrong
1579 05/18/91   5 Sat CIN N 1B RF 3 CIN 6 2 2 1 Don Carman
1580 05/19/91   5 Sun CIN D 2B RF 3 CIN 1 0 2 2 Norm Charlton
1581 05/20/91   5 Mon ATL N 1B RF 3 ATL 1 0 1 1 John Smoltz
1582 05/20/91   5 Mon ATL N HR RF 3 ATL 6 0 0 1 John Smoltz
1583 05/20/91   5 Mon ATL N 2B RF 3 ATL 9 2 1 0 Jeff Parrett
1584 05/21/91   5 Tue ATL N 1B RF 3 ATL 1 2 0 0 Charlie Leibran
1585 05/21/91   5 Tue ATL N 2B RF 3 ATL 4 0 1 1 Charlie Leibran
1586 05/21/91   5 Tue ATL N 3B RF 3 ATL 6 2 0 0 Charlie Leibran
1587 05/22/91   5 Wed ATL N 1B RF 3 ATL 5 2 1 0 Steve Avery
1588 05/22/91   5 Wed ATL N 1B RF 3 ATL 9 0 1 0 Jeff Parrett
1589 05/23/91   5 Thu ATL N 2B RF 3 ATL 1 1 1 1 Pete Smith
1590 05/23/91   5 Thu ATL N 1B RF 3 ATL 5 2 1 1 Marvin Freeman
1591 05/23/91   5 Thu ATL N 2B RF 3 ATL 10 2 1 1 Doug Sisk
1592 05/25/91   5 Sat HOU N 2B RF 3 HOU 10 2 2 1 Curt Schilling
1593 05/26/91   5 Sun HOU D 1B RF 3 HOU 1 1 1 1 Mark Portugal
1594 05/26/91   5 Sun HOU D 3B RF 3 HOU 6 2 1 1 Mark Portugal
1595 05/27/91   5 Mon SD N 2B RF 3 ATL 3 2 1 0 Steve Avery
1596 05/27/91   5 Mon SD N 1B RF 3 ATL 6 0 1 0 Steve Avery
1597 05/27/91   5 Mon SD N 1B RF 3 ATL 8 1 0 0 Kent Mercker
1598 05/28/91   5 Tue SD N 3B RF 3 ATL 1 1 1 1 Pete Smith
1599 05/29/91   5 Wed SD N 1B RF 3 ATL 8 1 1 0 Tom Glavine
1600 05/30/91   5 Thu SD D 1B RF 3 HOU 6 1 0 0 Jimmy Jones
1601 05/31/91   5 Fri SD N 1B RF 3 HOU 1 2 0 0 Mark Portugal
1602 06/01/91   6 Sat SD N 2B RF 3 HOU 1 1 1 1 Jim Deshaies
1603 06/02/91   6 Sun SD D 1B RF 3 HOU 3 1 1 0 Xavier Hernande
1604 06/02/91   6 Sun SD D 1B RF 3 HOU 7 1 1 1 Al Osuna
1605 06/04/91   6 Tue CHI N 1B RF 3 CHI 2 2 2 1 Bob Scanlan
1606 06/04/91   6 Tue CHI N 1B RF 3 CHI 3 2 1 0 Chuck McElroy
1607 06/05/91   6 Wed CHI D 1B RF 3 CHI 8 2 2 1 Paul Assenmache
1608 06/06/91   6 Thu CHI D 1B RF 3 CHI 1 1 1 0 Greg Maddux
1609 06/06/91   6 Thu CHI D 1B RF 3 CHI 4 0 0 0 Greg Maddux
1610 06/06/91   6 Thu CHI D 1B RF 3 CHI 6 0 0 0 Greg Maddux
1611 06/07/91   6 Fri PIT N 1B RF 3 PIT 6 1 0 0 Doug Drabek
1612 06/08/91   6 Sat PIT N 1B RF 3 PIT 1 1 1 0 Randy Tomlin
1613 06/08/91   6 Sat PIT N 1B RF 3 PIT 4 0 1 0 Neal Heaton
1614 06/08/91   6 Sat PIT N 1B RF 3 PIT 7 1 0 0 Bob Kipper
1615 06/09/91   6 Sun PIT D 3B RF 3 PIT 4 1 0 0 Zane Smith
1616 06/09/91   6 Sun PIT D 1B RF 3 PIT 6 0 2 1 Zane Smith
1617 06/11/91   6 Tue SD N 1B RF 3 STL 6 1 1 0 Ken Hill
1618 06/12/91   6 Wed SD N 1B RF 3 STL 8 1 2 1 Juan Agosto
1619 06/13/91   6 Thu SD D 1B RF 3 STL 3 2 0 0 Bob Tewksbury
1620 06/13/91   6 Thu SD D 2B RF 3 STL 6 1 0 0 Bob Tewksbury
1621 06/14/91   6 Fri SD N 1B RF 3 CHI 6 0 0 0 Chuck McElroy
1622 06/15/91   6 Sat SD D 1B RF 3 CHI 1 2 0 0 Les Lancaster
1623 06/15/91   6 Sat SD D 1B RF 3 CHI 5 2 0 0 Les Lancaster
1624 06/16/91   6 Sun SD D 1B RF 3 CHI 4 1 1 0 Greg Maddux
1625 06/16/91   6 Sun SD D 1B RF 3 CHI 6 1 0 0 Greg Maddux
1626 06/17/91   6 Mon SD N 2B RF 3 PIT 6 0 0 0 Doug Drabek
1627 06/17/91   6 Mon SD N 1B RF 3 PIT 8 0 1 0 Doug Drabek
1628 06/19/91   6 Wed SD N 1B RF 3 PIT 6 2 0 0 Zane Smith
1629 06/19/91   6 Wed SD N 1B RF 3 PIT 8 0 1 0 Neal Heaton
1630 06/21/91   6 Fri STL N 2B RF 3 STL 1 2 0 0 Bryn Smith
1631 06/21/91   6 Fri STL N 2B RF 3 STL 7 2 1 1 Bryn Smith
1632 06/21/91   6 Fri STL N 1B RF 3 STL 9 1 0 0 Juan Agosto
1633 06/22/91   6 Sat STL N 1B RF 3 STL 1 2 0 0 Ken Hill
1634 06/22/91   6 Sat STL N 1B RF 3 STL 6 0 2 1 Ken Hill
1635 06/24/91   6 Mon STL N 1B RF 3 STL 8 1 1 0 Bob McClure
1636 06/25/91   6 Tue CIN N 1B RF 3 CIN 1 2 0 0 Chris Hammond
1637 06/26/91   6 Wed CIN N 1B RF 3 CIN 4 0 0 0 Scott Scudder
1638 06/27/91   6 Thu CIN D 1B RF 3 CIN 8 0 0 0 Ted Power
1639 06/28/91   6 Fri SD N 2B RF 3 SF 1 2 0 0 Don Robinson
1640 06/29/91   6 Sat SD N 1B RF 3 SF 8 0 0 0 Jeff Brantley
1641 06/29/91   6 Sat SD N 1B RF 3 SF 9 1 2 0 Dave Righetti
1642 07/02/91   7 Tue SD N 1B RF 3 LA 1 2 0 0 Ramon Martinez
1643 07/02/91   7 Tue SD N 2B RF 3 LA 6 0 0 0 Ramon Martinez
1644 07/03/91   7 Wed SD N 1B RF 3 LA 5 1 0 0 Bob Ojeda
1645 07/04/91   7 Thu SD N 1B RF 3 LA 1 1 1 0 Mike Morgan
1646 07/04/91   7 Thu SD N 1B RF 3 LA 3 1 1 0 Mike Morgan
1647 07/04/91   7 Thu SD N 1B RF 3 LA 5 1 1 1 Mike Morgan
1648 07/04/91   7 Thu SD N 1B RF 3 LA 10 0 0 0 Mike Hartley
1649 07/06/91   7 Sat SF D 1B RF 3 SF 9 2 1 0 Don Robinson
1650 07/07/91   7 Sun SF D 1B RF 3 SF 1 2 0 0 John Burkett
1651 07/11/91   7 Thu NYM N 1B RF 3 NYM 3 2 0 0 Dwight Gooden
1652 07/11/91   7 Thu NYM N 1B RF 3 NYM 8 2 0 0 Dwight Gooden
1653 07/15/91   7 Mon MTL N 1B RF 3 MTL 1 2 0 0 Chris Haney
1654 07/16/91   7 Tue MTL N 1B RF 3 MTL 6 2 0 0 Mark Gardner
1655 07/17/91   7 Wed MTL N 1B RF 3 MTL 6 0 0 0 Dennis Martinez
1656 07/21/91   7 Sun SD D 3B RF 3 PHI 8 1 0 0 Terry Mulhollan
1657 07/23/91   7 Tue SD N 2B RF 3 MTL 10 2 0 0 Barry Jones
1658 07/24/91   7 Wed SD N 1B RF 3 MTL 3 1 1 0 Brian Barnes
1659 07/25/91   7 Thu SD D 2B RF 3 MTL 5 1 0 0 Ron Darling
1660 07/26/91   7 Fri SD N 1B RF 3 NYM 6 0 0 0 Sid Fernandez
1661 07/26/91   7 Fri SD N 1B RF 3 NYM 8 2 1 0 Jeff Innis
1662 07/28/91   7 Sun SD D 1B RF 3 NYM 6 2 1 0 Frank Viola
1663 07/30/91   7 Tue PHI N 1B RF 3 PHI 7 1 1 0 Jose DeJesus
1664 07/31/91   7 Wed PHI N 1B RF 3 PHI 4 0 1 0 Bruce Ruffin
1665 07/31/91   7 Wed PHI N 1B RF 3 PHI 8 0 1 1 Roger McDowell
1666 08/02/91   8 Fri ATL N 1B RF 3 ATL 1 1 1 0 Charlie Leibran
1667 08/02/91   8 Fri ATL N 1B RF 3 ATL 3 0 1 0 Charlie Leibran
1668 08/02/91   8 Fri ATL N 1B RF 3 ATL 4 1 0 0 Charlie Leibran
1669 08/03/91   8 Sat ATL N HR RF 3 ATL 1 2 0 1 Tom Glavine
1670 08/03/91   8 Sat ATL N 1B RF 3 ATL 6 1 0 0 Tom Glavine
1671 08/03/91   8 Sat ATL N 1B RF 3 ATL 8 1 1 1 Tom Glavine
1672 08/04/91   8 Sun ATL D 1B RF 2 ATL 9 0 0 0 Kent Mercker
1673 08/05/91   8 Mon HOU N 2B RF 3 HOU 9 0 0 0 Curt Schilling
1674 08/07/91   8 Wed HOU N 1B RF 3 HOU 1 0 2 1 Jimmy Jones
1675 08/07/91   8 Wed HOU N 3B RF 3 HOU 6 2 1 1 Jimmy Jones
1676 08/08/91   8 Thu HOU N 1B RF 3 HOU 3 0 3 2 Ryan Bowen
1677 08/08/91   8 Thu HOU N 1B RF 3 HOU 5 2 1 1 Ryan Bowen
1678 08/09/91   8 Fri SD N 1B RF 3 CIN 9 0 0 0 Rob Dibble
1679 08/10/91   8 Sat SD N 1B RF 3 CIN 1 1 1 0 Jose Rijo
1680 08/10/91   8 Sat SD N 1B RF 3 CIN 3 2 1 0 Jose Rijo
1681 08/12/91   8 Mon SD N 2B RF 3 HOU 3 2 2 2 Jimmy Jones
1682 08/12/91   8 Mon SD N 1B RF 3 HOU 5 2 1 0 Jimmy Jones
1683 08/12/91   8 Mon SD N 1B RF 3 HOU 8 2 0 0 Mike Capel
1684 08/14/91   8 Wed SD N 1B RF 3 HOU 7 1 1 0 Jim Corsi
1685 08/15/91   8 Thu SD D 3B RF 3 ATL 1 2 0 0 John Smoltz
1686 08/15/91   8 Thu SD D 2B RF 3 ATL 4 1 0 0 John Smoltz
1687 08/17/91   8 Sat SD N 1B RF 3 ATL 4 1 0 0 Charlie Leibran
1688 08/17/91   8 Sat SD N 1B RF 3 ATL 9 0 1 0 Marvin Freeman
1689 08/19/91   8 Mon LA N 1B RF 3 LA 1 2 0 0 Tim Belcher
1690 08/19/91   8 Mon LA N 1B RF 3 LA 10 2 0 0 Kevin Gross
1691 08/25/91   8 Sun CHI D 1B RF 3 CHI 6 1 1 0 Chuck McElroy
1692 08/26/91   8 Mon PIT N 2B RF 3 PIT 1 1 1 0 Randy Tomlin
1693 08/26/91   8 Mon PIT N HR RF 3 PIT 10 1 1 2 Bob Kipper
1694 08/27/91   8 Tue PIT D 1B RF 3 PIT 1 2 0 0 Zane Smith
1695 08/27/91   8 Tue PIT D 1B RF 3 PIT 6 2 0 0 Zane Smith
1696 09/03/91   9 Tue SD N 1B RF 3 CHI 7 0 1 0 Greg Maddux
1697 09/03/91   9 Tue SD N 1B RF 3 CHI 8 1 1 0 Les Lancaster
1698 09/09/91   9 Mon HOU N 1B RF 3 HOU 9 0 0 0 Al Osuna
1699 09/12/91   9 Thu ATL N 2B RF 3 ATL 1 1 0 0 Charlie Leibran
1700 04/06/92   4 Mon CIN D 1B RF 2 CIN 4 0 0 0 Jose Rijo
1701 04/06/92   4 Mon CIN D 2B RF 2 CIN 5 2 2 1 Jose Rijo
1702 04/07/92   4 Tue CIN N 2B RF 2 CIN 4 0 1 0 Tom Browning
1703 04/07/92   4 Tue CIN N 1B RF 2 CIN 6 2 0 0 Tom Browning
1704 04/08/92   4 Wed CIN D 3B RF 2 CIN 6 0 0 0 Tim Belcher
1705 04/08/92   4 Wed CIN D 1B RF 2 CIN 8 0 0 0 Scott Ruskin
1706 04/09/92   4 Thu SD N 1B RF 2 LA 8 1 0 0 Tom Candiotti
1707 04/11/92   4 Sat SD N 1B RF 2 LA 6 1 1 0 Kevin Gross
1708 04/11/92   4 Sat SD N 1B RF 2 LA 10 0 1 0 Roger McDowell
1709 04/12/92   4 Sun SD D 1B RF 2 LA 7 2 1 0 Steve Wilson
1710 04/14/92   4 Tue SF N 2B RF 2 SF 1 1 0 0 John Burkett
1711 04/15/92   4 Wed SF N 1B RF 2 SF 6 0 0 0 Dave Burba
1712 04/16/92   4 Thu SF D 1B RF 2 SF 8 1 1 0 Bill Swift
1713 04/18/92   4 Sat HOU N 1B RF 2 HOU 3 1 1 0 Darryl Kile
1714 04/18/92   4 Sat HOU N 1B RF 2 HOU 7 0 1 0 Rob Murphy
1715 04/18/92   4 Sat HOU N 1B RF 2 HOU 9 1 0 0 Doug Jones
1716 04/19/92   4 Sun HOU D 1B RF 2 HOU 3 2 1 0 Butch Henry
1717 04/20/92   4 Mon SD N 1B RF 2 ATL 1 1 0 0 Charlie Leibran
1718 04/20/92   4 Mon SD N 2B RF 2 ATL 6 1 0 0 Marvin Freeman
1719 04/21/92   4 Tue SD N 1B RF 2 ATL 3 1 0 0 Mike Bielecki
1720 04/21/92   4 Tue SD N 1B RF 2 ATL 5 0 0 0 Mike Bielecki
1721 04/22/92   4 Wed SD D 1B RF 2 ATL 1 1 0 0 Tom Glavine
1722 04/22/92   4 Wed SD D 1B RF 2 ATL 4 1 0 0 Tom Glavine
1723 04/22/92   4 Wed SD D 1B RF 2 ATL 7 2 1 0 Kent Mercker
1724 04/24/92   4 Fri SD N 1B RF 2 CIN 7 0 0 0 Tim Belcher
1725 04/24/92   4 Fri SD N 2B RF 2 CIN 16 2 0 0 Scott Bankhead
1726 04/25/92   4 Sat SD N 2B RF 2 CIN 5 1 2 1 Greg Swindell
1727 04/26/92   4 Sun SD D 1B RF 2 CIN 1 1 0 0 Chris Hammond
1728 04/26/92   4 Sun SD D 1B RF 2 CIN 3 2 1 0 Chris Hammond
1729 04/28/92   4 Tue SD N 1B RF 2 PHI 1 1 0 0 Tommy Greene
1730 04/28/92   4 Tue SD N 1B RF 2 PHI 3 0 0 0 Tommy Greene
1731 04/28/92   4 Tue SD N 1B RF 2 PHI 8 1 0 0 Barry Jones
1732 04/29/92   4 Wed SD N 1B RF 2 MTL 3 2 1 1 Chris Nabholz
1733 04/29/92   4 Wed SD N 1B RF 2 MTL 5 1 0 0 Chris Nabholz
1734 05/01/92   5 Fri SD N 2B RF 2 STL 3 2 1 0 Rheal Cormier
1735 05/01/92   5 Fri SD N 1B RF 2 STL 5 1 0 0 Rheal Cormier
1736 05/02/92   5 Sat SD N 1B RF 2 STL 4 0 0 0 Donovan Osborne
1737 05/05/92   5 Tue MTL N 1B RF 2 MTL 1 1 0 0 Dennis Martinez
1738 05/05/92   5 Tue MTL N 1B RF 2 MTL 3 2 0 0 Dennis Martinez
1739 05/05/92   5 Tue MTL N 1B RF 2 MTL 7 2 0 0 Dennis Martinez
1740 05/06/92   5 Wed MTL N 1B RF 2 MTL 3 1 1 0 Ken Hill
1741 05/08/92   5 Fri PHI N 1B RF 2 PHI 3 2 1 0 Kyle Abbott
1742 05/08/92   5 Fri PHI N HR RF 2 PHI 7 2 1 2 Curt Schilling
1743 05/09/92   5 Sat PHI N 1B RF 2 PHI 3 2 1 1 Cliff Brantley
1744 05/09/92   5 Sat PHI N 1B RF 2 PHI 7 2 0 0 Cliff Brantley
1745 05/11/92   5 Mon NYM N 1B RF 2 NYM 7 0 1 1 Wally Whitehurs
1746 05/12/92   5 Tue NYM N 2B RF 2 NYM 4 0 0 0 Dwight Gooden
1747 05/12/92   5 Tue NYM N 1B RF 2 NYM 7 2 2 0 Paul Gibson
1748 05/13/92   5 Wed NYM N 1B RF 2 NYM 3 2 1 0 David Cone
1749 05/13/92   5 Wed NYM N HR RF 2 NYM 5 2 1 2 David Cone
1750 05/13/92   5 Wed NYM N 1B RF 2 NYM 9 2 1 0 Tim Burke
1751 05/15/92   5 Fri PIT N 1B RF 2 PIT 2 1 1 0 Paul Miller
1752 05/15/92   5 Fri PIT N 2B RF 2 PIT 6 1 1 1 Paul Miller
1753 05/15/92   5 Fri PIT N 1B RF 2 PIT 8 1 0 0 Dennis Lamp
1754 05/15/92   5 Fri PIT N 1B RF 2 PIT 9 2 2 1 Bob Patterson
1755 05/16/92   5 Sat PIT N 2B RF 2 PIT 4 1 3 3 Bob Walk
1756 05/17/92   5 Sun PIT D 1B RF 2 PIT 1 0 1 0 Randy Tomlin
1757 05/17/92   5 Sun PIT D 1B RF 2 PIT 5 0 2 0 Randy Tomlin
1758 05/18/92   5 Mon SD N 1B RF 2 NYM 1 1 0 0 Dwight Gooden
1759 05/23/92   5 Sat SD N 1B RF 2 CHI 5 1 0 0 Mike Morgan
1760 05/25/92   5 Mon SD N 1B RF 2 PIT 4 0 0 0 Zane Smith
1761 05/25/92   5 Mon SD N HR RF 2 PIT 5 1 2 3 Zane Smith
1762 05/26/92   5 Tue SD N 1B RF 2 PIT 1 0 1 0 Bob Walk
1763 05/27/92   5 Wed SD N 1B RF 2 PIT 3 0 0 0 Randy Tomlin
1764 05/27/92   5 Wed SD N HR RF 2 PIT 4 1 1 2 Randy Tomlin
1765 05/29/92   5 Fri STL N 2B RF 2 STL 9 2 0 0 Donovan Osborne
1766 05/31/92   5 Sun STL D 1B RF 2 STL 1 1 0 0 Rheal Cormier
1767 05/31/92   5 Sun STL D 3B RF 2 STL 2 1 2 2 Rheal Cormier
1768 05/31/92   5 Sun STL D 2B RF 2 STL 3 1 0 0 Juan Agosto
1769 06/02/92   6 Tue CHI D 1B RF 2 CHI 6 0 0 0 Mike Morgan
1770 06/02/92   6 Tue CHI D 1B RF 2 CHI 11 0 0 0 Jeff Robinson
1771 06/05/92   6 Fri SD N 1B RF 2 ATL 1 0 1 0 Steve Avery
1772 06/05/92   6 Fri SD N 1B RF 2 ATL 8 0 0 0 Mike Stanton
1773 06/07/92   6 Sun SD D 1B RF 2 ATL 6 0 0 0 John Smoltz
1774 06/08/92   6 Mon SD N 2B RF 2 HOU 3 2 0 0 Pete Harnisch
1775 06/08/92   6 Mon SD N HR RF 2 HOU 7 1 0 1 Pete Harnisch
1776 06/09/92   6 Tue SD N 2B RF 2 HOU 1 1 0 0 Jimmy Jones
1777 06/10/92   6 Wed SD D 1B RF 2 HOU 3 1 0 0 Butch Henry
1778 06/10/92   6 Wed SD D 1B RF 2 HOU 5 1 0 0 Butch Henry
1779 06/12/92   6 Fri ATL N 2B RF 2 ATL 3 0 0 0 Tom Glavine
1780 06/12/92   6 Fri ATL N 1B RF 2 ATL 8 0 0 0 Tom Glavine
1781 06/13/92   6 Sat ATL N 1B RF 2 ATL 6 0 1 0 John Smoltz
1782 06/14/92   6 Sun ATL D 1B RF 2 ATL 4 1 0 0 Charlie Leibran
1783 06/14/92   6 Sun ATL D 1B RF 2 ATL 6 1 1 0 Charlie Leibran
1784 06/15/92   6 Mon HOU N 1B RF 2 HOU 1 0 1 0 Butch Henry
1785 06/17/92   6 Wed HOU D 1B RF 2 HOU 1 1 0 0 Willie Blair
1786 06/18/92   6 Thu SF N 1B RF 2 SF 8 2 1 0 Kelly Downs
1787 06/21/92   6 Sun SF D 1B RF 2 SF 1 1 0 0 Bill Swift
1788 06/22/92   6 Mon SD N HR RF 2 LA 1 1 0 1 Bob Ojeda
1789 06/25/92   6 Thu SD N 1B RF 2 SF 8 2 1 1 Francisco Olive
1790 06/27/92   6 Sat SD N 1B RF 2 SF 1 0 1 0 Bill Swift
1791 06/27/92   6 Sat SD N 1B RF 2 SF 5 1 0 0 Bill Swift
1792 06/27/92   6 Sat SD N 1B RF 2 SF 7 2 0 0 Bryan Hickerson
1793 06/28/92   6 Sun SD D 1B RF 2 SF 2 2 2 1 John Burkett
1794 06/28/92   6 Sun SD D 1B RF 2 SF 5 1 1 0 Gil Heredia
1795 06/30/92   6 Tue LA N 1B RF 2 LA 8 0 0 0 Ramon Martinez
1796 07/01/92   7 Wed LA D 2B RF 2 LA 3 0 0 0 Orel Hershiser
1797 07/06/92   7 Mon SD N 1B RF 2 STL 4 1 0 0 Mark Clark
1798 07/07/92   7 Tue SD N 1B RF 2 STL 8 0 0 0 Todd Worrell
1799 07/09/92   7 Thu SD N 1B RF 2 PHI 3 1 0 0 Terry Mulhollan
1800 07/10/92   7 Fri SD N 1B RF 2 PHI 1 1 0 0 Mike Williams
1801 07/10/92   7 Fri SD N 1B RF 2 PHI 3 2 0 0 Mike Williams
1802 07/11/92   7 Sat SD N 1B RF 2 PHI 1 1 0 0 Kyle Abbott
1803 07/11/92   7 Sat SD N 1B RF 2 PHI 3 0 0 0 Kyle Abbott
1804 07/11/92   7 Sat SD N 1B RF 2 PHI 4 2 1 0 Kyle Abbott
1805 07/17/92   7 Fri MTL N 1B RF 2 MTL 1 1 0 0 Chris Nabholz
1806 07/17/92   7 Fri MTL N 1B RF 2 MTL 9 0 0 0 Chris Nabholz
1807 07/18/92   7 Sat MTL N 1B RF 2 MTL 5 1 1 0 Dennis Martinez
1808 07/18/92   7 Sat MTL N 1B RF 2 MTL 7 1 2 1 Dennis Martinez
1809 07/19/92   7 Sun MTL D 1B RF 2 MTL 1 1 0 0 Mark Gardner
1810 07/19/92   7 Sun MTL D 1B RF 2 MTL 5 2 1 1 Mark Gardner
1811 07/19/92   7 Sun MTL D 3B RF 2 MTL 7 1 1 1 Mark Gardner
1812 07/20/92   7 Mon PHI N 1B RF 2 PHI 9 1 0 0 Barry Jones
1813 07/21/92   7 Tue PHI N 2B RF 2 PHI 3 2 1 1 Terry Mulhollan
1814 07/22/92   7 Wed PHI N 1B RF 2 PHI 7 0 0 0 Curt Schilling
1815 07/22/92   7 Wed PHI N 2B RF 2 PHI 9 1 0 0 Curt Schilling
1816 07/26/92   7 Sun NYM D 1B RF 2 NYM 6 0 0 0 Wally Whitehurs
1817 07/30/92   7 Thu LA N 1B RF 2 LA 6 0 0 0 Bob Ojeda
1818 07/30/92   7 Thu LA N 1B RF 2 LA 7 0 1 0 Steve Wilson
1819 08/01/92   8 Sat LA N 1B RF 2 LA 6 1 0 0 Jim Gott
1820 08/02/92   8 Sun LA D 1B RF 2 LA 1 1 0 0 Orel Hershiser
1821 08/03/92   8 Mon SD N 1B RF 2 SF 1 0 1 0 Trevor Wilson
1822 08/03/92   8 Mon SD N 1B RF 2 SF 3 0 0 0 Trevor Wilson
1823 08/03/92   8 Mon SD N 1B RF 2 SF 8 0 0 0 Mike Jackson
1824 08/04/92   8 Tue SD N 1B RF 2 SF 6 0 0 0 John Burkett
1825 08/05/92   8 Wed SD N 1B RF 2 SF 8 0 1 0 Jeff Brantley
1826 08/06/92   8 Thu SD N 1B RF 2 HOU 4 1 1 0 Brian Williams
1827 08/06/92   8 Thu SD N 1B RF 2 HOU 6 1 1 0 Willie Blair
1828 08/07/92   8 Fri SD N 1B RF 2 HOU 7 1 1 0 Pete Harnisch
1829 08/07/92   8 Fri SD N 1B RF 2 HOU 8 2 1 0 Al Osuna
1830 08/08/92   8 Sat SD N 1B RF 2 HOU 5 1 0 0 Jimmy Jones
1831 08/08/92   8 Sat SD N 1B RF 2 HOU 7 1 0 0 Rob Murphy
1832 08/11/92   8 Tue ATL N 1B RF 2 ATL 1 1 0 0 John Smoltz
1833 08/11/92   8 Tue ATL N 1B RF 2 ATL 7 0 0 0 Mark Davis
1834 08/11/92   8 Tue ATL N 1B RF 2 ATL 9 1 0 0 Mike Stanton
1835 08/13/92   8 Thu ATL N 1B RF 2 ATL 1 1 0 0 Charlie Leibran
1836 08/14/92   8 Fri CIN N 1B RF 2 CIN 6 2 1 0 Steve Foster
1837 08/14/92   8 Fri CIN N 1B RF 2 CIN 9 0 0 0 Norm Charlton
1838 08/15/92   8 Sat CIN N 2B RF 2 CIN 7 1 0 0 Dwayne Henry
1839 08/16/92   8 Sun CIN D 1B RF 2 CIN 3 2 2 0 Tim Belcher
1840 08/16/92   8 Sun CIN D 2B RF 2 CIN 5 0 2 1 Tim Belcher
1841 08/18/92   8 Tue PIT N 1B RF 2 PIT 3 2 1 0 Randy Tomlin
1842 08/18/92   8 Tue PIT N 1B RF 2 PIT 8 1 0 0 Randy Tomlin
1843 08/19/92   8 Wed PIT N 2B RF 2 PIT 3 0 0 0 Bob Walk
1844 08/19/92   8 Wed PIT N 1B RF 2 PIT 5 2 0 0 Bob Walk
1845 08/26/92   8 Wed SD N 2B RF 2 CHI 4 0 1 1 Greg Maddux
1846 08/26/92   8 Wed SD N 2B RF 2 CHI 5 2 2 1 Greg Maddux
1847 08/28/92   8 Fri SD N 1B RF 2 PIT 1 0 1 0 Doug Drabek
1848 08/28/92   8 Fri SD N 1B RF 2 PIT 5 0 0 0 Doug Drabek
1849 08/29/92   8 Sat SD N 1B RF 2 PIT 3 2 0 0 Randy Tomlin
1850 08/31/92   8 Mon STL N 2B RF 2 STL 1 1 0 0 Bob Tewksbury
1851 08/31/92   8 Mon STL N 1B RF 2 STL 6 0 0 0 Bob Tewksbury
1852 09/01/92   9 Tue STL N 1B RF 2 STL 4 1 0 0 Donovan Osborne
1853 09/01/92   9 Tue STL N 1B RF 2 STL 6 1 0 0 Donovan Osborne
1854 09/02/92   9 Wed STL N 1B RF 2 STL 3 1 1 0 Mark Clark
1855 09/02/92   9 Wed STL N 1B RF 2 STL 7 2 0 0 Bryn Smith
1856 09/04/92   9 Fri CHI D 1B RF 2 CHI 8 1 0 0 Paul Assenmache
1857 09/05/92   9 Sat CHI D 1B RF 2 CHI 5 2 0 0 Greg Maddux
1858 09/06/92   9 Sun CHI D 2B RF 2 CHI 9 0 0 0 Paul Assenmache
1859 09/07/92   9 Mon SF N 1B RF 2 SF 3 1 0 0 Bud Black
1860 09/08/92   9 Tue SF N 2B RF 2 SF 1 0 1 1 Dave Burba
1861 09/08/92   9 Tue SF N 1B RF 2 SF 2 2 1 0 Dave Burba
1862 09/08/92   9 Tue SF N 1B RF 2 SF 5 1 0 0 Dave Burba
1863 09/08/92   9 Tue SF N 2B RF 2 SF 7 0 1 1 Mike Jackson
1864 09/08/92   9 Tue SF N 1B RF 2 SF 16 2 0 0 Jeff Brantley
1865 04/08/93   4 Thu PIT D 1B RF 1 PIT 6 0 1 0 Bob Walk
1866 04/10/93   4 Sat FLA N 2B RF 1 FLA 6 1 0 0 Charlie Hough
1867 04/11/93   4 Sun FLA D 1B RF 1 FLA 1 0 0 0 Jack Armstrong
1868 04/11/93   4 Sun FLA D 1B RF 1 FLA 7 1 0 0 Jack Armstrong
1869 04/11/93   4 Sun FLA D 2B RF 1 FLA 9 1 1 1 Cris Carpenter
1870 04/13/93   4 Tue SD N 2B RF 2 PIT 1 1 0 0 Bob Walk
1871 04/13/93   4 Tue SD N 1B RF 2 PIT 8 1 0 0 John Candelaria
1872 04/15/93   4 Thu SD D 2B RF 2 PIT 6 1 1 0 Steve Cooke
1873 04/15/93   4 Thu SD D 1B RF 2 PIT 10 0 0 0 Denny Neagle
1874 04/16/93   4 Fri SD N 1B RF 2 STL 1 1 0 0 Joe Magrane
1875 04/16/93   4 Fri SD N 1B RF 2 STL 8 0 0 0 Lester Lancast
1876 04/18/93   4 Sun SD D 1B RF 2 STL 1 1 0 0 Donovan Osborne
1877 04/18/93   4 Sun SD D 1B RF 2 STL 3 1 1 0 Donovan Osborne
1878 04/18/93   4 Sun SD D 1B RF 2 STL 5 0 1 0 Donovan Osborne
1879 04/18/93   4 Sun SD D 1B RF 2 STL 7 1 0 0 Mike Perez
1880 04/18/93   4 Sun SD D HR RF 2 STL 8 2 1 2 Omar Olivares
1881 04/22/93   4 Thu PHI N 1B RF 2 PHI 9 1 0 0 Larry Andersen
1882 04/24/93   4 Sat NYM D 1B RF 2 NYM 3 2 0 0 Bret Saberhagen
1883 04/25/93   4 Sun NYM D 1B RF 2 NYM 1 1 0 0 Sid Fernandez
1884 04/26/93   4 Mon SD N 1B RF 2 MTL 6 2 1 0 Jimmy Jones
1885 04/27/93   4 Tue SD N 3B RF 2 MTL 8 0 0 0 Brian Barnes
1886 04/28/93   4 Wed SD N 1B RF 2 PHI 8 1 1 0 Curt Schilling
1887 04/29/93   4 Thu SD D 1B RF 2 PHI 8 1 0 0 Danny Jackson
1888 04/30/93   4 Fri SD N 1B RF 2 NYM 1 1 0 0 Sid Fernandez
1889 04/30/93   4 Fri SD N 1B RF 2 NYM 3 2 1 0 Sid Fernandez
1890 04/30/93   4 Fri SD N 1B RF 2 NYM 5 0 2 1 Sid Fernandez
1891 04/30/93   4 Fri SD N 2B RF 2 NYM 7 1 1 1 Mike Draper
1892 04/30/93   4 Fri SD N 1B RF 2 NYM 8 2 2 1 Anthony Young
1893 05/01/93   5 Sat SD N 1B RF 2 NYM 1 1 0 0 Pete Schourek
1894 05/01/93   5 Sat SD N 1B RF 2 NYM 5 0 0 0 Pete Schourek
1895 05/01/93   5 Sat SD N 2B RF 2 NYM 6 2 0 0 Mike Draper
1896 05/01/93   5 Sat SD N 1B RF 2 NYM 8 0 0 0 Mike Maddux
1897 05/02/93   5 Sun SD D 1B RF 2 NYM 3 1 0 0 Dwight Gooden
1898 05/02/93   5 Sun SD D 2B RF 2 NYM 5 0 0 0 Dwight Gooden
1899 05/05/93   5 Wed MTL N 2B RF 2 MTL 3 1 0 0 Ken Hill
1900 05/05/93   5 Wed MTL N 1B RF 2 MTL 5 0 0 0 Ken Hill
1901 05/07/93   5 Fri CHI D 1B RF 2 CHI 3 0 0 0 Mike Morgan
1902 05/08/93   5 Sat CHI D 1B RF 2 CHI 1 1 0 0 Mike Harkey
1903 05/08/93   5 Sat CHI D 2B RF 2 CHI 5 2 2 2 Mike Harkey
1904 05/08/93   5 Sat CHI D 1B RF 2 CHI 9 2 1 0 Randy Myers
1905 05/09/93   5 Sun CHI D 1B RF 2 CHI 5 2 1 1 Jose Guzman
1906 05/09/93   5 Sun CHI D 1B RF 2 CHI 7 2 0 0 Dan Plesac
1907 05/10/93   5 Mon CIN N 1B RF 2 CIN 1 0 1 0 Tom Browning
1908 05/10/93   5 Mon CIN N 2B RF 2 CIN 8 2 0 0 Steve Foster
1909 05/11/93   5 Tue CIN N 1B RF 2 CIN 1 0 1 0 Tim Belcher
1910 05/11/93   5 Tue CIN N 1B RF 2 CIN 3 1 1 1 Tim Belcher
1911 05/17/93   5 Mon SD N 1B RF 2 COL 4 1 0 0 Butch Henry
1912 05/17/93   5 Mon SD N 1B RF 2 COL 6 1 2 1 Butch Henry
1913 05/19/93   5 Wed SD N 1B RF 1 COL 1 0 0 0 Lance Painter
1914 05/20/93   5 Thu SD D 1B RF 1 COL 1 0 0 0 Armando Reynoso
1915 05/20/93   5 Thu SD D 2B RF 1 COL 5 0 0 0 Armando Reynoso
1916 05/20/93   5 Thu SD D 1B RF 1 COL 10 1 0 0 Jeff Parrett
1917 05/21/93   5 Fri SD N 1B RF 1 HOU 6 0 0 0 Mark Portugal
1918 05/21/93   5 Fri SD N 1B RF 1 HOU 10 1 1 0 Doug Jones
1919 05/22/93   5 Sat SD N 1B RF 1 HOU 3 0 0 0 Doug Drabek
1920 05/22/93   5 Sat SD N 1B RF 1 HOU 6 0 1 0 Al Osuna
1921 05/22/93   5 Sat SD N 1B RF 1 HOU 7 2 0 0 Darryl Kile
1922 05/23/93   5 Sun SD D 1B RF 1 HOU 5 1 0 0 Greg Swindell
1923 05/23/93   5 Sun SD D 2B RF 1 HOU 6 2 1 1 Xavier Hernande
1924 05/24/93   5 Mon LA N 1B RF 1 LA 4 0 0 0 Kevin Gross
1925 05/24/93   5 Mon LA N 1B RF 1 LA 6 0 0 0 Kevin Gross
1926 05/24/93   5 Mon LA N 2B RF 1 LA 7 1 0 0 Kevin Gross
1927 05/25/93   5 Tue LA N 1B RF 1 LA 1 0 0 0 Tom Candiotti
1928 05/26/93   5 Wed LA N 1B RF 1 LA 7 1 0 0 Roger McDowell
1929 05/26/93   5 Wed LA N 1B RF 1 LA 9 2 0 0 Ricky Trlicek
1930 05/28/93   5 Fri STL N 1B RF 1 STL 7 0 0 0 Donovan Osborne
1931 06/02/93   6 Wed ATL N 2B RF 1 ATL 1 0 0 0 Steve Avery
1932 06/03/93   6 Thu ATL D 1B RF 1 ATL 2 2 1 0 Pete Smith
1933 06/03/93   6 Thu ATL D 1B RF 1 ATL 4 0 1 0 Marvin Freeman
1934 06/03/93   6 Thu ATL D 2B RF 1 ATL 4 2 2 1 Kent Mercker
1935 06/05/93   6 Sat SD N 1B RF 1 FLA 1 0 0 0 Luis Aquino
1936 06/06/93   6 Sun SD D 1B RF 1 FLA 1 0 0 0 Chris Hammond
1937 06/10/93   6 Thu SD D HR RF 1 LA 3 1 0 1 Ramon Martinez
1938 06/10/93   6 Thu SD D 2B RF 1 LA 5 0 0 0 Ricky Trlicek
1939 06/10/93   6 Thu SD D 3B RF 1 LA 6 1 3 3 Ricky Trlicek
1940 06/11/93   6 Fri SD N 2B RF 1 LA 9 2 3 3 Omar Daal
1941 06/12/93   6 Sat SD N 1B RF 1 LA 1 0 0 0 Tom Candiotti
1942 06/26/93   6 Sat SD N 1B RF 3 CIN 6 2 0 0 Jose Rijo
1943 06/26/93   6 Sat SD N 1B RF 3 CIN 8 2 2 1 Steve Foster
1944 06/28/93   6 Mon SD N 2B RF 3 CHI 3 2 1 0 Turk Wendell
1945 06/28/93   6 Mon SD N 2B RF 3 CHI 8 1 1 0 Dan Plesac
1946 06/30/93   6 Wed SD D 1B RF 3 CHI 1 1 1 0 Jose Guzman
1947 07/02/93 1 7 Fri PHI D 1B RF 2 PHI 5 2 0 0 Terry Mulhollan
1948 07/03/93   7 Sat PHI N 1B RF 3 PHI 7 2 1 0 Danny Jackson
1949 07/03/93   7 Sat PHI N 1B RF 3 PHI 9 1 1 1 Larry Andersen
1950 07/04/93   7 Sun PHI N 2B RF 3 PHI 3 1 1 0 Ben Rivera
1951 07/04/93   7 Sun PHI N 1B RF 3 PHI 5 2 0 0 Ben Rivera
1952 07/04/93   7 Sun PHI N 2B RF 3 PHI 7 1 2 1 Ben Rivera
1953 07/05/93   7 Mon NYM N 1B RF 2 NYM 3 2 1 0 Pete Schourek
1954 07/05/93   7 Mon NYM N 1B RF 2 NYM 5 1 2 1 Pete Schourek
1955 07/05/93   7 Mon NYM N 2B RF 2 NYM 7 0 0 0 Pete Schourek
1956 07/08/93   7 Thu MTL N 3B RF 2 MTL 4 0 0 0 Dennis Martinez
1957 07/08/93   7 Thu MTL N 1B RF 2 MTL 6 2 0 0 Dennis Martinez
1958 07/08/93   7 Thu MTL N 1B RF 2 MTL 8 0 0 0 John Wetteland
1959 07/10/93   7 Sat MTL N 1B RF 2 MTL 3 0 1 0 Jeff Fassero
1960 07/10/93   7 Sat MTL N 1B RF 2 MTL 5 0 0 0 Jeff Fassero
1961 07/10/93   7 Sat MTL N 1B RF 2 MTL 7 2 0 0 Jeff Shaw
1962 07/11/93   7 Sun MTL D HR RF 2 MTL 1 1 0 1 Kent Bottenfiel
1963 07/11/93   7 Sun MTL D 1B RF 2 MTL 7 0 0 0 Brian Barnes
1964 07/15/93   7 Thu SD D 1B RF 3 PHI 6 0 1 0 Danny Jackson
1965 07/15/93   7 Thu SD D 1B RF 3 PHI 7 2 3 2 Larry Andersen
1966 07/16/93   7 Fri SD N 1B RF 3 PHI 4 0 0 0 Tommy Greene
1967 07/16/93   7 Fri SD N 2B RF 3 PHI 6 1 0 0 Tommy Greene
1968 07/16/93   7 Fri SD N HR RF 3 PHI 7 2 1 2 David West
1969 07/17/93   7 Sat SD N 2B RF 3 PHI 6 0 1 0 Terry Mulhollan
1970 07/18/93   7 Sun SD D 1B RF 3 PHI 6 2 0 0 Curt Schilling
1971 07/18/93   7 Sun SD D 1B RF 3 PHI 8 2 0 0 David West
1972 07/19/93   7 Mon SD N 1B RF 3 NYM 9 2 2 1 John Franco
1973 07/20/93   7 Tue SD N 1B RF 3 NYM 1 1 0 0 Dave Telgheder
1974 07/20/93   7 Tue SD N 1B RF 3 NYM 3 2 0 0 Dave Telgheder
1975 07/21/93   7 Wed SD D 2B RF 3 NYM 1 1 1 0 Dwight Gooden
1976 07/23/93   7 Fri SD N 1B RF 3 MTL 6 0 0 0 Jeff Fassero
1977 07/24/93   7 Sat SD N 1B RF 3 MTL 4 0 0 0 Chris Nabholz
1978 07/26/93   7 Mon CHI N HR RF 3 CHI 8 0 0 1 Paul Assenmache
1979 07/26/93   7 Mon CHI N 1B RF 3 CHI 10 0 0 0 Dan Plesac
1980 07/27/93   7 Tue CHI N 1B RF 3 CHI 1 1 1 0 Mike Harkey
1981 07/27/93   7 Tue CHI N 1B RF 3 CHI 2 2 2 1 Mike Harkey
1982 07/27/93   7 Tue CHI N 1B RF 3 CHI 4 0 0 0 Dan Plesac
1983 07/27/93   7 Tue CHI N 2B RF 3 CHI 5 2 2 2 Dan Plesac
1984 07/27/93   7 Tue CHI N 2B RF 3 CHI 8 1 0 0 Jose Bautista
1985 07/30/93   7 Fri CIN N 2B RF 3 CIN 1 1 1 1 Tim Belcher
1986 07/30/93   7 Fri CIN N 2B RF 3 CIN 9 2 2 2 Jeff Reardon
1987 08/01/93   8 Sun CIN D HR RF 3 CIN 4 0 0 1 Tom Browning
1988 08/03/93   8 Tue SD N 1B RF 3 SF 1 2 0 0 Bud Black
1989 08/03/93   8 Tue SD N 1B RF 3 SF 4 1 0 0 Bud Black
1990 08/04/93   8 Wed SD N 2B RF 3 SF 1 2 0 0 Greg Brummett
1991 08/04/93   8 Wed SD N 1B RF 3 SF 3 2 0 0 Greg Brummett
1992 08/04/93   8 Wed SD N 2B RF 3 SF 7 0 0 0 Dave Righetti
1993 08/04/93   8 Wed SD N 1B RF 3 SF 8 2 1 0 Jeff Brantley
1994 08/04/93   8 Wed SD N 1B RF 3 SF 10 1 0 0 Bryan Hickerson
1995 08/04/93   8 Wed SD N 1B RF 3 SF 12 1 1 0 Bryan Hickerson
1996 08/05/93   8 Thu SD D HR RF 3 SF 3 2 1 2 Bill Swift
1997 08/06/93 1 8 Fri SD D 1B RF 3 COL 1 1 1 1 Armando Reynoso
1998 08/06/93 1 8 Fri SD D 1B RF 3 COL 3 2 1 0 Armando Reynoso
1999 08/06/93 1 8 Fri SD D 1B RF 3 COL 6 0 1 0 Steve Reed
2000 08/06/93 2 8 Fri SD N 1B RF 3 COL 6 1 0 0 Bruce Ruffin
2001 08/06/93 2 8 Fri SD N 1B RF 3 COL 8 1 0 0 Darren Holmes
2002 08/09/93   8 Mon SD N 1B RF 3 HOU 1 1 1 0 Pete Harnisch
2003 08/09/93   8 Mon SD N 1B RF 3 HOU 3 2 1 0 Pete Harnisch
2004 08/10/93   8 Tue SD N 2B RF 3 HOU 1 2 0 0 Doug Drabek
2005 08/10/93   8 Tue SD N 1B RF 3 HOU 3 1 0 0 Doug Drabek
2006 08/10/93   8 Tue SD N 1B RF 3 HOU 4 0 1 0 Doug Drabek
2007 08/11/93   8 Wed SD N 1B RF 3 HOU 1 1 1 0 Darryl Kile
2008 08/11/93   8 Wed SD N 1B RF 3 HOU 8 0 0 0 Doug Jones
2009 08/12/93   8 Thu SD D 2B RF 3 HOU 1 2 0 0 Greg Swindell
2010 08/12/93   8 Thu SD D 1B RF 3 HOU 8 2 0 0 Xavier Hernande
2011 08/13/93   8 Fri LA N 1B RF 3 LA 1 1 1 0 Kevin Gross
2012 08/14/93   8 Sat LA N 1B RF 3 LA 1 1 1 0 Tom Candiotti
2013 08/14/93   8 Sat LA N 2B RF 3 LA 4 0 0 0 Tom Candiotti
2014 08/14/93   8 Sat LA N 1B RF 3 LA 6 0 0 0 Tom Candiotti
2015 08/14/93   8 Sat LA N 1B RF 3 LA 9 1 0 0 Jim Gott
2016 08/15/93   8 Sun LA D 1B RF 3 LA 6 0 2 1 Pedro Astacio
2017 08/17/93   8 Tue STL N 1B RF 3 STL 3 1 1 0 Bob Tewksbury
2018 08/18/93   8 Wed STL N 1B RF 3 STL 9 2 0 0 Rob Murphy
2019 08/20/93   8 Fri SD N 2B RF 3 PIT 1 1 1 1 Randy Tomlin
2020 08/20/93   8 Fri SD N 1B RF 3 PIT 5 2 0 0 Blas Minor
2021 08/22/93   8 Sun SD D 1B RF 3 PIT 1 2 0 0 Steve Cooke
2022 08/22/93   8 Sun SD D 1B RF 3 PIT 5 2 1 1 Steve Cooke
2023 08/23/93   8 Mon SD N 1B RF 3 STL 1 1 1 0 Donovan Osborne
2024 08/23/93   8 Mon SD N 1B RF 3 STL 8 2 2 0 Lee Guetterman
2025 08/24/93   8 Tue SD N 1B RF 3 STL 1 2 3 2 Todd Burns
2026 08/25/93   8 Wed SD D 2B RF 3 STL 1 2 0 0 Rene Arocha
2027 08/25/93   8 Wed SD D 1B RF 3 STL 9 0 0 0 Rob Murphy
2028 08/27/93   8 Fri PIT N 1B RF 3 PIT 1 2 0 0 Steve Cooke
2029 08/27/93   8 Fri PIT N 1B RF 3 PIT 3 2 2 1 Steve Cooke
2030 08/27/93   8 Fri PIT N 2B RF 3 PIT 5 1 0 0 Steve Cooke
2031 08/28/93   8 Sat PIT N 2B RF 3 PIT 7 2 1 0 Joel Johnston
2032 08/29/93 1 8 Sun PIT D 1B RF 3 PIT 1 1 1 0 Bob Walk
2033 08/29/93 1 8 Sun PIT D 2B RF 3 PIT 3 0 1 0 Bob Walk
2034 09/01/93   9 Wed FLA N 1B RF 3 FLA 2 1 2 2 Robb Nen
2035 09/01/93   9 Wed FLA N 1B RF 3 FLA 5 1 1 0 Robb Nen
2036 09/03/93   9 Fri ATL N 2B RF 3 ATL 1 2 0 0 Tom Glavine
2037 09/03/93   9 Fri ATL N 1B RF 3 ATL 4 0 0 0 Tom Glavine
2038 09/03/93   9 Fri ATL N 2B RF 3 ATL 9 0 1 1 Tom Glavine
2039 09/04/93   9 Sat ATL N 1B RF 3 ATL 6 1 1 0 Jay Howell
2040 04/04/94   4 Mon SD D 1B RF 3 ATL 1 2 0 0 Greg Maddux
2041 04/12/94   4 Tue PIT N 1B RF 3 PIT 1 1 1 0 Steve Cooke
2042 04/12/94   4 Tue PIT N 1B RF 3 PIT 5 2 0 0 Steve Cooke
2043 04/13/94   4 Wed PIT N 1B RF 3 PIT 9 0 0 0 Rick White
2044 04/14/94   4 Thu PIT D 1B RF 3 PIT 8 0 0 0 Ravelo Manzanil
2045 04/15/94   4 Fri STL N HR RF 2 STL 8 0 1 2 Bob Tewksbury
2046 04/16/94   4 Sat STL N 2B RF 2 STL 3 0 0 0 Rheal Cormier
2047 04/16/94   4 Sat STL N 2B RF 2 STL 5 2 0 0 Rheal Cormier
2048 04/16/94   4 Sat STL N 1B RF 2 STL 8 1 2 0 Tom Urbani
2049 04/18/94   4 Mon SD N 2B RF 2 NYM 6 2 0 0 Eric Hillman
2050 04/18/94   4 Mon SD N 1B RF 2 NYM 8 2 1 0 Jonathan Hurst
2051 04/19/94   4 Tue SD N 1B RF 2 NYM 1 0 1 1 Bret Saberhagen
2052 04/19/94   4 Tue SD N 1B RF 2 NYM 5 1 1 0 Bret Saberhagen
2053 04/21/94   4 Thu SD D 1B RF 2 MTL 1 1 0 0 Ken Hill
2054 04/21/94   4 Thu SD D 1B RF 2 MTL 3 1 1 0 Ken Hill
2055 04/21/94   4 Thu SD D 2B RF 2 MTL 8 0 0 0 Ken Hill
2056 04/22/94   4 Fri SD N 2B RF 2 PHI 3 2 1 1 Shawn Boskie
2057 04/22/94   4 Fri SD N 1B RF 2 PHI 7 2 1 0 Larry Andersen
2058 04/23/94   4 Sat SD N 1B RF 2 PHI 1 0 1 0 Ben Rivera
2059 04/23/94   4 Sat SD N 1B RF 2 PHI 2 1 2 1 Ben Rivera
2060 04/23/94   4 Sat SD N 2B RF 2 PHI 4 2 1 1 Ben Rivera
2061 04/23/94   4 Sat SD N HR RF 2 PHI 6 0 0 1 Roger Mason
2062 04/23/94   4 Sat SD N 1B RF 2 PHI 8 0 0 0 Heathcliff Sloc
2063 04/24/94   4 Sun SD D 1B RF 2 PHI 3 1 0 0 Curt Schilling
2064 04/24/94   4 Sun SD D 1B RF 2 PHI 4 2 1 0 Curt Schilling
2065 04/24/94   4 Sun SD D 1B RF 2 PHI 8 1 0 0 Doug Jones
2066 04/26/94   4 Tue NYM N 2B RF 2 NYM 6 0 0 0 Pete Smith
2067 04/27/94   4 Wed NYM N 1B RF 2 NYM 7 0 1 0 Bobby Jones
2068 04/27/94   4 Wed NYM N 1B RF 2 NYM 14 1 0 0 Doug Linton
2069 04/30/94   4 Sat MTL D 1B RF 2 MTL 1 1 0 0 Pedro J. Martin
2070 05/01/94   5 Sun MTL D 1B PH 2 MTL 8 1 1 0 Butch Henry
2071 05/02/94   5 Mon PHI N 1B RF 2 PHI 3 2 0 0 Danny Jackson
2072 05/02/94   5 Mon PHI N 1B RF 2 PHI 6 0 0 0 Danny Jackson
2073 05/03/94   5 Tue PHI N HR RF 2 PHI 1 1 0 1 Jeff Juden
2074 05/03/94   5 Tue PHI N 1B RF 2 PHI 4 0 0 0 Jeff Juden
2075 05/06/94   5 Fri SD N 1B RF 2 COL 1 0 1 0 Mike Harkey
2076 05/06/94   5 Fri SD N 1B RF 2 COL 6 2 1 0 Willie Blair
2077 05/06/94   5 Fri SD N 1B RF 2 COL 8 1 0 0 Darren Holmes
2078 05/07/94   5 Sat SD N 1B RF 2 COL 6 0 0 0 Marvin Freeman
2079 05/08/94   5 Sun SD D 1B RF 2 COL 6 1 0 0 David Nied
2080 05/11/94   5 Wed SD N 1B RF 3 CIN 1 1 1 0 Tim Pugh
2081 05/11/94   5 Wed SD N 3B RF 3 CIN 3 0 0 0 Tim Pugh
2082 05/11/94   5 Wed SD N 1B RF 3 CIN 7 1 0 0 Johnny Ruffin
2083 05/13/94   5 Fri LA N HR RF 3 LA 4 0 0 1 Kevin Gross
2084 05/13/94   5 Fri LA N 2B RF 3 LA 6 1 0 0 Kevin Gross
2085 05/13/94   5 Fri LA N 1B RF 3 LA 8 1 0 0 Kevin Gross
2086 05/14/94   5 Sat LA N 1B RF 3 LA 1 0 2 0 Orel Hershiser
2087 05/14/94   5 Sat LA N 2B RF 3 LA 3 1 1 0 Orel Hershiser
2088 05/14/94   5 Sat LA N 1B RF 3 LA 8 1 0 0 Orel Hershiser
2089 05/17/94   5 Tue CHI D 1B RF 3 CHI 3 2 1 1 Jose Guzman
2090 05/19/94   5 Thu HOU N 1B RF 3 HOU 6 0 1 0 Darryl Kile
2091 05/19/94   5 Thu HOU N 1B RF 3 HOU 7 1 0 0 Mike Hampton
2092 05/20/94   5 Fri HOU N 1B RF 3 HOU 6 2 0 0 Greg Swindell
2093 05/22/94   5 Sun HOU D 1B RF 3 HOU 3 2 0 0 Pete Harnisch
2094 05/22/94   5 Sun HOU D 2B RF 3 HOU 5 0 1 1 Pete Harnisch
2095 05/23/94   5 Mon SD N 1B RF 3 SF 3 1 0 0 Mark Portugal
2096 05/24/94   5 Tue SD N 2B RF 3 SF 5 0 0 0 Bryan Hickerson
2097 05/24/94   5 Tue SD N 1B RF 3 SF 7 1 0 0 Dave Burba
2098 05/26/94   5 Thu SD D 2B RF 3 SF 6 0 0 0 Bill Vanlanding
2099 05/26/94   5 Thu SD D 2B RF 3 SF 7 2 1 1 Steve Frey
2100 05/27/94   5 Fri SD N 1B RF 3 STL 3 1 1 0 Bob Tewksbury
2101 05/27/94   5 Fri SD N 2B RF 3 STL 4 2 1 1 Bob Tewksbury
2102 05/28/94   5 Sat SD N 1B RF 3 STL 4 0 0 0 Allen Watson
2103 05/29/94   5 Sun SD D 1B RF 3 STL 1 2 0 0 Tom Urbani
2104 05/29/94   5 Sun SD D 1B RF 3 STL 8 1 0 0 Rich Rodriguez
2105 05/30/94   5 Mon SD N HR RF 3 PIT 1 1 1 2 Paul Wagner
2106 05/30/94   5 Mon SD N 2B RF 3 PIT 7 2 3 3 Ravelo Manzanil
2107 05/31/94   5 Tue SD N 1B RF 3 PIT 2 0 1 1 Steve Cooke
2108 06/01/94   6 Wed SD D HR RF 3 PIT 5 1 0 1 Jon Lieber
2109 06/03/94   6 Fri FLA N 1B RF 3 FLA 4 1 0 0 Pat Rapp
2110 06/05/94   6 Sun FLA N 2B RF 3 FLA 5 2 2 2 Chris Hammond
2111 06/05/94   6 Sun FLA N 1B RF 3 FLA 7 2 0 0 Chris Hammond
2112 06/06/94   6 Mon ATL N 1B RF 3 ATL 3 2 2 1 Greg Maddux
2113 06/07/94   6 Tue ATL N HR RF 3 ATL 6 1 0 1 Kent Mercker
2114 06/10/94   6 Fri SF N 1B RF 3 SF 6 0 0 0 John Burkett
2115 06/10/94   6 Fri SF N 2B RF 3 SF 7 1 2 2 John Burkett
2116 06/11/94   6 Sat SF D 1B RF 3 SF 1 1 1 0 Mark Portugal
2117 06/11/94   6 Sat SF D 1B RF 3 SF 4 2 1 0 Mark Portugal
2118 06/11/94   6 Sat SF D 1B RF 3 SF 7 0 0 0 Mark Portugal
2119 06/11/94   6 Sat SF D 1B RF 3 SF 9 1 0 0 Bryan Hickerson
2120 06/12/94   6 Sun SF D 1B RF 3 SF 8 0 2 1 Bill Swift
2121 06/14/94   6 Tue SD N 2B RF 3 CHI 8 0 0 0 Dan Plesac
2122 06/15/94   6 Wed SD N 1B RF 3 CHI 1 2 0 0 Steve Trachsel
2123 06/15/94   6 Wed SD N 1B RF 3 CHI 8 1 1 0 Dan Plesac
2124 06/16/94   6 Thu SD D 1B RF 3 CHI 6 0 0 0 Willie Banks
2125 06/16/94   6 Thu SD D 1B RF 3 CHI 8 0 0 0 Turk Wendell
2126 06/17/94   6 Fri SD N 1B RF 3 HOU 3 2 1 0 Greg Swindell
2127 06/17/94   6 Fri SD N 1B RF 3 HOU 5 2 0 0 Greg Swindell
2128 06/18/94   6 Sat SD N 1B RF 3 HOU 6 0 0 0 Shane Reynolds
2129 06/19/94   6 Sun SD D HR RF 3 HOU 5 2 2 3 Brian Williams
2130 06/21/94   6 Tue SD N 1B RF 3 LA 3 2 0 0 Tom Candiotti
2131 06/21/94   6 Tue SD N 1B RF 3 LA 6 1 0 0 Tom Candiotti
2132 06/21/94   6 Tue SD N 1B RF 3 LA 13 1 1 1 Rudy Seanez
2133 06/22/94   6 Wed SD D 1B RF 3 LA 1 1 1 1 Orel Hershiser
2134 06/22/94   6 Wed SD D 1B RF 3 LA 6 1 1 0 Roger McDowell
2135 06/24/94   6 Fri CIN N 1B RF 3 CIN 6 0 0 0 Jose Rijo
2136 06/25/94   6 Sat CIN N 1B RF 3 CIN 1 1 1 0 Pete Schourek
2137 06/25/94   6 Sat CIN N 1B RF 3 CIN 3 0 0 0 Pete Schourek
2138 06/26/94   6 Sun CIN D 1B RF 3 CIN 4 0 0 0 John Roper
2139 06/26/94   6 Sun CIN D 2B RF 3 CIN 5 2 0 0 John Roper
2140 06/27/94   6 Mon COL N 1B RF 3 COL 6 1 1 0 Mike Munoz
2141 06/27/94   6 Mon COL N 1B RF 3 COL 8 0 0 0 Bruce Ruffin
2142 06/28/94 1 6 Tue COL D HR RF 3 COL 6 0 0 1 Steve Reed
2143 06/28/94 2 6 Tue COL N 1B RF 3 COL 3 1 0 0 Mike Harkey
2144 06/28/94 2 6 Tue COL N 1B RF 3 COL 11 1 3 2 Greg W. Harris
2145 06/29/94   6 Wed COL D 2B RF 3 COL 1 2 0 0 Kevin Ritz
2146 06/29/94   6 Wed COL D 2B RF 3 COL 9 1 2 2 Bruce Walton
2147 06/30/94   6 Thu SD N 1B RF 3 NYM 1 2 0 0 Bret Saberhagen
2148 06/30/94   6 Thu SD N 2B RF 3 NYM 3 2 1 0 Bret Saberhagen
2149 07/02/94   7 Sat SD N 1B RF 3 NYM 1 0 2 1 Jason Jacome
2150 07/02/94   7 Sat SD N 1B RF 3 NYM 3 2 0 0 Jason Jacome
2151 07/02/94   7 Sat SD N 2B RF 3 NYM 7 0 2 2 Doug Linton
2152 07/04/94   7 Mon SD N 1B RF 3 PHI 1 2 0 0 Danny Jackson
2153 07/05/94   7 Tue SD N 1B RF 3 PHI 8 2 0 0 Andy Carter
2154 07/07/94   7 Thu SD N 1B RF 3 MTL 4 2 0 0 Ken Hill
2155 07/09/94   7 Sat SD N 1B RF 3 MTL 1 2 0 0 Butch Henry
2156 07/10/94   7 Sun SD D 1B CF 3 MTL 1 0 2 1 Jeff Fassero
2157 07/10/94   7 Sun SD D 1B CF 3 MTL 6 0 0 0 Jeff Fassero
2158 07/15/94 1 7 Fri NYM D 1B RF 3 NYM 4 0 0 0 Bobby Jones
2159 07/15/94 1 7 Fri NYM D 1B RF 3 NYM 5 2 2 1 Bobby Jones
2160 07/15/94 2 7 Fri NYM N 1B RF 3 NYM 1 2 0 0 Bret Saberhagen
2161 07/15/94 2 7 Fri NYM N HR RF 3 NYM 14 1 0 1 Mike Maddux
2162 07/16/94   7 Sat NYM N 2B RF 3 NYM 1 2 0 0 Jason Jacome
2163 07/16/94   7 Sat NYM N 2B RF 3 NYM 6 0 0 0 Jason Jacome
2164 07/16/94   7 Sat NYM N 1B RF 3 NYM 9 2 1 0 John Franco
2165 07/17/94   7 Sun NYM D 1B RF 3 NYM 1 2 0 0 Pete Smith
2166 07/17/94   7 Sun NYM D 1B RF 3 NYM 3 0 1 0 Pete Smith
2167 07/17/94   7 Sun NYM D 2B RF 3 NYM 5 1 0 0 Pete Smith
2168 07/18/94   7 Mon MTL N HR RF 3 MTL 1 2 0 1 Kirk Rueter
2169 07/20/94   7 Wed MTL N 1B RF 3 MTL 8 2 0 0 Butch Henry
2170 07/22/94 1 7 Fri PHI N 1B RF 3 PHI 1 1 1 0 Bobby Munoz
2171 07/22/94 1 7 Fri PHI N 1B RF 3 PHI 3 1 0 0 Bobby Munoz
2172 07/22/94 1 7 Fri PHI N 1B RF 3 PHI 5 1 0 0 Bobby Munoz
2173 07/22/94 1 7 Fri PHI N 1B RF 3 PHI 9 2 1 1 Doug Jones
2174 07/22/94 2 7 Fri PHI N 2B RF 3 PHI 1 1 1 1 Fernando Valenz
2175 07/22/94 2 7 Fri PHI N 2B RF 3 PHI 7 1 0 0 Larry Andersen
2176 07/23/94   7 Sat PHI N 1B RF 3 PHI 7 1 1 1 Toby Borland
2177 07/23/94   7 Sat PHI N 1B RF 3 PHI 9 1 1 0 Larry Andersen
2178 07/25/94   7 Mon SD N 1B RF 3 COL 9 2 1 0 Bruce Ruffin
2179 07/27/94   7 Wed SD N 1B RF 3 COL 5 0 2 1 Lance Painter
2180 07/28/94   7 Thu SD N 1B RF 2 CIN 6 2 0 0 Erik Hanson
2181 07/28/94   7 Thu SD N 1B RF 2 CIN 8 1 2 1 Chuck McElroy
2182 07/29/94   7 Fri SD N 1B RF 2 CIN 3 1 1 0 Pete Schourek
2183 07/29/94   7 Fri SD N 2B RF 2 CIN 5 1 2 1 Pete Schourek
2184 07/30/94   7 Sat SD N 1B RF 2 CIN 5 0 0 0 John Smiley
2185 07/31/94   7 Sun SD D 2B RF 3 CIN 1 2 0 0 Jose Rijo
2186 08/01/94   8 Mon LA N 2B RF 2 LA 4 2 1 1 Orel Hershiser
2187 08/01/94   8 Mon LA N 1B RF 2 LA 8 0 1 0 Rudy Seanez
2188 08/02/94   8 Tue LA N 1B RF 2 LA 1 0 1 0 Tom Candiotti
2189 08/02/94   8 Tue LA N 2B RF 2 LA 3 0 0 0 Tom Candiotti
2190 08/02/94   8 Tue LA N 1B RF 2 LA 9 0 0 0 Ismael Valdes
2191 08/03/94   8 Wed LA N 1B RF 2 LA 6 1 0 0 Pedro Astacio
2192 08/03/94   8 Wed LA N 2B RF 2 LA 9 0 0 0 Ismael Valdes
2193 08/05/94   8 Fri CHI D 1B RF 2 CHI 5 1 0 0 Willie Banks
2194 08/05/94   8 Fri CHI D 1B RF 2 CHI 7 1 0 0 Willie Banks
2195 08/06/94   8 Sat CHI N 1B RF 2 CHI 9 2 0 0 Frank Castillo
2196 08/07/94   8 Sun CHI D 2B RF 2 CHI 1 0 1 1 Kevin Foster
2197 08/07/94   8 Sun CHI D 1B RF 2 CHI 3 2 0 0 Kevin Foster
2198 08/07/94   8 Sun CHI D HR RF 2 CHI 5 2 0 1 Kevin Foster
2199 08/09/94   8 Tue HOU N 2B RF 2 HOU 1 1 0 0 Shane Reynolds
2200 08/09/94   8 Tue HOU N 1B RF 2 HOU 6 0 1 0 Shane Reynolds
2201 08/10/94   8 Wed HOU N 1B RF 2 HOU 6 1 0 0 Darryl Kile
2202 08/11/94   8 Thu HOU D 1B RF 2 HOU 1 1 0 0 Greg Swindell
2203 08/11/94   8 Thu HOU D 1B RF 2 HOU 4 1 0 0 Dave Veres
2204 08/11/94   8 Thu HOU D 1B RF 2 HOU 8 2 1 0 Ross Powell
2205 04/26/95   4 Wed SD N 2B RF 3 HOU 1 2 0 0 Doug Drabek
2206 04/26/95   4 Wed SD N 1B RF 3 HOU 6 0 0 0 Dave Veres
2207 04/27/95   4 Thu SD D HR RF 3 HOU 5 0 0 1 Ross Powell
2208 04/27/95   4 Thu SD D 1B RF 3 HOU 6 0 2 1 Ross Powell
2209 04/28/95   4 Fri SD N 1B RF 3 CIN 1 1 1 0 Kevin Jarvis
2210 04/28/95   4 Fri SD N 1B RF 3 CIN 6 0 0 0 Tim Pugh
2211 04/29/95   4 Sat SD N 1B RF 3 CIN 1 0 2 1 Pete Schourek
2212 04/29/95   4 Sat SD N 1B RF 3 CIN 4 0 0 0 Pete Smith
2213 04/30/95   4 Sun SD D 1B RF 3 CIN 1 0 2 1 John Roper
2214 04/30/95   4 Sun SD D 1B RF 3 CIN 2 2 0 0 John Roper
2215 04/30/95   4 Sun SD D 1B RF 3 CIN 8 1 0 0 Xavier Hernande
2216 05/01/95   5 Mon COL N 1B RF 3 COL 1 2 0 0 Bill Swift
2217 05/02/95   5 Tue COL N 1B RF 3 COL 4 2 0 0 Mark Thompson
2218 05/03/95   5 Wed COL D 1B RF 3 COL 1 1 1 0 Kevin Ritz
2219 05/03/95   5 Wed COL D 1B RF 3 COL 4 2 1 1 A.J. Sager
2220 05/03/95   5 Wed COL D 1B RF 3 COL 8 2 1 0 Bruce Ruffin
2221 05/04/95   5 Thu SD D 2B RF 3 SF 7 0 2 1 Steve Frey
2222 05/05/95   5 Fri SD N 1B RF 3 SF 4 1 0 0 Joey Rosselli
2223 05/05/95   5 Fri SD N 1B RF 3 SF 6 2 1 0 Pat Gomez
2224 05/06/95   5 Sat SD N 1B RF 3 SF 1 0 2 1 Terry Mulhollan
2225 05/07/95   5 Sun SD D 1B RF 3 SF 7 2 1 1 Mark Portugal
2226 05/09/95   5 Tue SD N 1B RF 3 LA 1 0 2 1 Tom Candiotti
2227 05/09/95   5 Tue SD N 1B RF 3 LA 3 1 0 0 Tom Candiotti
2228 05/09/95   5 Tue SD N 1B RF 3 LA 6 2 2 2 Rob Murphy
2229 05/13/95   5 Sat CHI D 1B RF 3 CHI 4 1 1 0 Frank Castillo
2230 05/13/95   5 Sat CHI D 1B RF 3 CHI 9 1 1 0 Frank Castillo
2231 05/14/95   5 Sun CHI D 1B RF 3 CHI 4 0 0 0 Jim Bullinger
2232 05/14/95   5 Sun CHI D 1B RF 3 CHI 8 2 0 0 Bryan Hickerson
2233 05/15/95   5 Mon SD N 2B RF 3 STL 3 1 2 2 Ken Hill
2234 05/16/95   5 Tue SD N 1B RF 3 STL 9 0 0 0 Jeff Parrett
2235 05/20/95   5 Sat SD N 2B RF 3 PIT 1 1 1 1 Paul Wagner
2236 05/20/95   5 Sat SD N HR RF 3 PIT 3 1 1 2 Paul Wagner
2237 05/24/95   5 Wed MTL N 1B RF 3 MTL 4 0 0 0 Pedro J. Martin
2238 05/24/95   5 Wed MTL N 2B RF 3 MTL 7 1 1 1 Pedro J. Martin
2239 05/28/95   5 Sun PHI D 1B RF 3 PHI 7 1 0 0 Curt Schilling
2240 05/28/95   5 Sun PHI D 1B RF 3 PHI 9 0 0 0 Heathcliff Sloc
2241 05/28/95   5 Sun PHI D 1B RF 3 PHI 10 2 3 2 Toby Borland
2242 05/30/95   5 Tue NYM N 1B RF 3 NYM 1 1 1 0 Pete Harnisch
2243 05/30/95   5 Tue NYM N 2B RF 3 NYM 4 0 0 0 Pete Harnisch
2244 05/31/95   5 Wed NYM D 1B RF 3 NYM 6 0 1 0 Bobby Jones
2245 05/31/95   5 Wed NYM D 2B RF 3 NYM 8 2 0 0 Bobby Jones
2246 05/31/95   5 Wed NYM D 1B RF 3 NYM 10 1 1 0 John Franco
2247 06/04/95   6 Sun SD D 1B RF 3 MTL 1 1 1 1 Butch Henry
2248 06/04/95   6 Sun SD D 1B RF 3 MTL 3 0 1 1 Butch Henry
2249 06/04/95   6 Sun SD D 1B RF 3 MTL 5 1 0 0 Greg A. Harris
2250 06/04/95   6 Sun SD D 1B RF 3 MTL 7 0 0 0 Gabe White
2251 06/05/95   6 Mon SD N 1B RF 3 PHI 9 1 0 0 Norm Charlton
2252 06/06/95   6 Tue SD N 1B RF 3 PHI 1 2 0 0 Mike Williams
2253 06/06/95   6 Tue SD N 1B RF 3 PHI 3 1 0 0 Mike Williams
2254 06/06/95   6 Tue SD N 2B RF 3 PHI 5 1 0 0 Mike Williams
2255 06/09/95   6 Fri SD N 1B RF 3 NYM 3 1 1 0 Pete Harnisch
2256 06/09/95   6 Fri SD N 2B RF 3 NYM 5 1 1 1 Pete Harnisch
2257 06/10/95   6 Sat SD N 2B RF 3 NYM 5 2 2 2 Bobby Jones
2258 06/11/95   6 Sun SD D 1B RF 3 NYM 9 0 0 0 Jerry DiPoto
2259 06/13/95   6 Tue STL N 1B RF 3 STL 4 1 0 0 Tom Urbani
2260 06/14/95   6 Wed STL N HR RF 3 STL 9 1 1 2 Ken Hill
2261 06/15/95   6 Thu STL N 1B RF 3 STL 1 2 0 0 Mark Petkovsek
2262 06/16/95   6 Fri PIT N 1B RF 3 PIT 2 2 2 1 Esteban Loaiza
2263 06/16/95   6 Fri PIT N 2B RF 3 PIT 3 1 3 3 Rick White
2264 06/17/95   6 Sat PIT N 2B RF 3 PIT 3 0 1 0 Jon Lieber
2265 06/17/95   6 Sat PIT N 1B RF 3 PIT 3 2 0 0 Jeff McCurry
2266 06/18/95   6 Sun PIT D 1B RF 3 PIT 1 1 1 0 Paul Wagner
2267 06/18/95   6 Sun PIT D 2B RF 3 PIT 6 0 0 0 Paul Wagner
2268 06/20/95   6 Tue SD N 1B RF 3 CHI 5 1 3 2 Frank Castillo
2269 06/23/95   6 Fri SD N 1B RF 3 COL 4 0 1 0 Marvin Freeman
2270 06/23/95   6 Fri SD N 2B RF 3 COL 6 1 0 0 Marvin Freeman
2271 06/24/95   6 Sat SD N 1B RF 3 COL 1 2 0 0 Kevin Ritz
2272 06/24/95   6 Sat SD N 1B RF 3 COL 3 1 1 0 Kevin Ritz
2273 06/25/95   6 Sun SD D 1B RF 3 COL 1 1 1 0 Joe Grahe
2274 06/25/95   6 Sun SD D 1B RF 3 COL 3 2 1 0 Joe Grahe
2275 06/25/95   6 Sun SD D HR RF 3 COL 7 2 1 2 Curt Leskanic
2276 06/26/95   6 Mon LA N HR RF 3 LA 7 2 0 1 Pedro Astacio
2277 06/27/95   6 Tue LA N 1B RF 3 LA 1 1 1 0 Ramon Martinez
2278 06/27/95   6 Tue LA N 1B RF 3 LA 4 0 1 0 Ramon Martinez
2279 06/28/95   6 Wed LA N 2B RF 3 LA 3 2 0 0 Ismael Valdes
2280 06/28/95   6 Wed LA N 1B RF 3 LA 5 2 1 0 Ismael Valdes
2281 06/28/95   6 Wed LA N 1B RF 3 LA 8 0 0 0 Omar Daal
2282 07/01/95   7 Sat SF D 1B RF 3 SF 8 2 0 0 Bill Vanlanding
2283 07/02/95   7 Sun SF D 1B RF 3 SF 1 0 2 1 Joey Rosselli
2284 07/02/95   7 Sun SF D 1B RF 3 SF 5 2 0 0 Joey Rosselli
2285 07/03/95   7 Mon FLA N 1B RF 3 FLA 8 1 0 0 John Burkett
2286 07/04/95   7 Tue FLA N 2B RF 3 FLA 4 0 0 0 Mark Gardner
2287 07/04/95   7 Tue FLA N 1B RF 3 FLA 6 0 0 0 Mark Gardner
2288 07/04/95   7 Tue FLA N 1B RF 3 FLA 9 2 1 1 Robb Nen
2289 07/05/95   7 Wed FLA N 2B RF 3 FLA 3 2 2 2 Chris Hammond
2290 07/05/95   7 Wed FLA N 1B RF 3 FLA 7 1 2 1 Chris Hammond
2291 07/06/95   7 Thu HOU N 2B RF 3 HOU 4 2 0 0 Shane Reynolds
2292 07/06/95   7 Thu HOU N 1B RF 3 HOU 8 2 3 2 Shane Reynolds
2293 07/06/95   7 Thu HOU N 1B RF 3 HOU 11 1 0 0 Todd Jones
2294 07/07/95   7 Fri HOU N 1B RF 3 HOU 4 1 0 0 Greg Swindell
2295 07/07/95   7 Fri HOU N 1B RF 3 HOU 6 1 1 0 Greg Swindell
2296 07/08/95 1 7 Sat HOU D 1B RF 3 HOU 1 0 1 0 Doug Drabek
2297 07/08/95 1 7 Sat HOU D 1B RF 3 HOU 9 2 0 0 Todd Jones
2298 07/08/95 1 7 Sat HOU D 2B RF 3 HOU 16 2 2 1 Ross Powell
2299 07/08/95 2 7 Sat HOU N 1B RF 3 HOU 4 2 0 0 Mike Hampton
2300 07/08/95 2 7 Sat HOU N 1B RF 3 HOU 6 1 2 0 Dean Hartgraves
2301 07/09/95   7 Sun HOU D HR RF 3 HOU 1 0 2 3 Darryl Kile
2302 07/09/95   7 Sun HOU D 1B RF 3 HOU 7 0 1 0 Darryl Kile
2303 07/13/95   7 Thu SD N 1B RF 3 ATL 9 1 0 0 Greg Maddux
2304 07/14/95   7 Fri SD D 1B RF 3 ATL 4 0 0 0 Tom Glavine
2305 07/15/95   7 Sat SD N 2B RF 3 ATL 1 1 1 1 Steve Avery
2306 07/15/95   7 Sat SD N 1B RF 3 ATL 7 1 1 0 Pedro Borbon
2307 07/16/95   7 Sun SD D 1B RF 3 ATL 7 0 2 0 Mike Stanton
2308 07/17/95   7 Mon SD N 1B RF 3 CIN 1 2 0 0 C.J. Nitkowski
2309 07/17/95   7 Mon SD N 1B RF 3 CIN 5 1 0 0 C.J. Nitkowski
2310 07/21/95   7 Fri ATL N 1B RF 3 ATL 6 0 0 0 Steve Avery
2311 07/22/95   7 Sat ATL N 1B RF 3 ATL 8 2 1 1 Pedro Borbon
2312 07/23/95   7 Sun ATL D 1B RF 3 ATL 1 1 1 0 John Smoltz
2313 07/23/95   7 Sun ATL D 1B RF 3 ATL 8 2 0 0 John Smoltz
2314 07/24/95   7 Mon CIN N 1B RF 3 CIN 4 1 1 0 Mark Portugal
2315 07/25/95   7 Tue CIN D 1B RF 3 CIN 3 2 0 0 Tim Pugh
2316 07/25/95   7 Tue CIN D 1B RF 3 CIN 7 2 2 1 Chuck McElroy
2317 07/27/95 1 7 Thu FLA D 2B RF 3 FLA 6 0 0 0 David Weathers
2318 07/29/95   7 Sat SD N HR RF 3 HOU 1 2 0 1 Greg Swindell
2319 07/29/95   7 Sat SD N 1B RF 3 HOU 8 2 1 0 Greg Swindell
2320 07/30/95   7 Sun SD D 2B RF 3 HOU 1 2 0 0 Doug Drabek
2321 07/30/95   7 Sun SD D 1B RF 3 HOU 6 0 0 0 Doug Drabek
2322 07/30/95   7 Sun SD D 1B RF 3 HOU 8 1 1 0 Jeff Tabaka
2323 07/31/95   7 Mon SD D 1B RF 3 HOU 3 0 2 1 Darryl Kile
2324 07/31/95   7 Mon SD D 1B RF 3 HOU 5 1 1 1 Darryl Kile
2325 07/31/95   7 Mon SD D 1B RF 3 HOU 7 2 2 1 Dean Hartgraves
2326 08/01/95   8 Tue SD N 1B RF 3 SF 3 1 0 0 Mark Leiter
2327 08/02/95   8 Wed SD N 1B RF 3 SF 1 2 0 0 Trevor Wilson
2328 08/02/95   8 Wed SD N 1B RF 3 SF 8 0 2 1 Shawn Barton
2329 08/02/95   8 Wed SD N 1B RF 3 SF 8 2 1 0 Terry Mulhollan
2330 08/03/95   8 Thu SD D 1B RF 3 SF 6 0 0 0 Sergio Valdez
2331 08/03/95   8 Thu SD D 1B RF 3 SF 7 0 0 0 Scott Service
2332 08/08/95   8 Tue CHI N 1B RF 3 CHI 1 2 0 0 Kevin Foster
2333 08/12/95   8 Sat SD N 1B PH 5 STL 7 1 3 1 T.J. Mathews
2334 08/14/95   8 Mon SD N 1B RF 3 PIT 1 2 0 0 Paul Wagner
2335 08/15/95   8 Tue SD N 1B RF 3 PIT 6 0 0 0 Steve Parris
2336 08/16/95   8 Wed SD N 1B RF 3 PIT 1 2 0 0 John Ericks
2337 08/16/95   8 Wed SD N 1B RF 3 PIT 5 0 0 0 John Ericks
2338 08/18/95   8 Fri MTL N 1B RF 3 MTL 8 1 1 0 Jeff Fassero
2339 08/19/95   8 Sat MTL N 1B RF 3 MTL 1 1 1 1 Gil Heredia
2340 08/19/95   8 Sat MTL N 1B RF 3 MTL 4 2 0 0 Jeff Shaw
2341 08/20/95   8 Sun MTL D 1B RF 3 MTL 4 1 0 0 Pedro J. Martin
2342 08/20/95   8 Sun MTL D 2B RF 3 MTL 9 2 0 0 Mel Rojas
2343 08/22/95   8 Tue PHI N HR RF 3 PHI 5 2 3 4 Tommy Greene
2344 08/24/95   8 Thu NYM N 1B RF 3 NYM 1 2 0 0 Dave Mlicki
2345 08/24/95   8 Thu NYM N 1B RF 3 NYM 6 1 0 0 Dave Mlicki
2346 08/25/95   8 Fri NYM N 1B RF 3 NYM 1 2 0 0 Jason Isringhau
2347 08/26/95   8 Sat NYM N 1B RF 3 NYM 1 2 0 0 Bill Pulsipher
2348 08/26/95   8 Sat NYM N 1B RF 3 NYM 9 0 1 0 Bill Pulsipher
2349 08/27/95   8 Sun NYM D 2B RF 3 NYM 3 1 0 0 Reid Cornelius
2350 08/29/95   8 Tue SD N 2B RF 3 MTL 8 1 0 0 Jeff Fassero
2351 08/30/95   8 Wed SD N 1B RF 3 MTL 3 2 0 0 Gil Heredia
2352 08/30/95   8 Wed SD N 1B RF 3 MTL 9 1 1 0 Greg A. Harris
2353 08/31/95   8 Thu SD D 1B RF 3 MTL 1 1 0 0 Pedro J. Martin
2354 08/31/95   8 Thu SD D 1B RF 3 MTL 6 1 2 2 Pedro J. Martin
2355 09/01/95   9 Fri SD N 1B RF 3 PHI 1 1 1 1 Mike Grace
2356 09/01/95   9 Fri SD N 1B RF 3 PHI 5 1 1 0 Mike Grace
2357 09/02/95   9 Sat SD D 1B RF 3 PHI 3 1 1 0 Tyler Green
2358 09/03/95   9 Sun SD D 1B RF 3 PHI 3 2 1 0 Paul Quantrill
2359 09/03/95   9 Sun SD D 1B RF 3 PHI 5 2 1 1 Paul Quantrill
2360 09/03/95   9 Sun SD D 1B RF 3 PHI 7 2 0 0 Paul Quantrill
2361 09/04/95   9 Mon SD N 2B RF 3 NYM 4 2 0 0 Dave Mlicki
2362 09/04/95   9 Mon SD N 1B RF 3 NYM 6 1 1 0 Dave Mlicki
2363 09/04/95   9 Mon SD N 1B RF 3 NYM 10 1 1 0 Doug Henry
2364 09/05/95   9 Tue SD N 1B RF 3 NYM 9 1 0 0 Don FLArence
2365 09/06/95   9 Wed SD D 1B RF 3 NYM 3 2 0 0 Bill Pulsipher
2366 09/06/95   9 Wed SD D 1B RF 3 NYM 5 2 1 0 Bill Pulsipher
2367 09/06/95   9 Wed SD D 1B RF 3 NYM 7 1 0 0 Bill Pulsipher
2368 09/09/95   9 Sat STL D 1B RF 3 STL 1 2 0 0 Mike Morgan
2369 09/09/95   9 Sat STL D 1B RF 3 STL 5 2 1 1 Mike Morgan
2370 09/09/95   9 Sat STL D 1B RF 3 STL 9 2 0 0 Tom Henke
2371 09/11/95   9 Mon PIT N 2B RF 3 PIT 1 0 2 1 Denny Neagle
2372 09/11/95   9 Mon PIT N 1B RF 3 PIT 7 1 0 0 Jon Lieber
2373 09/12/95   9 Tue PIT N 1B RF 3 PIT 3 0 1 0 John Ericks
2374 09/12/95   9 Tue PIT N 1B RF 3 PIT 5 1 0 0 John Ericks
2375 09/13/95   9 Wed PIT N 1B RF 3 PIT 5 2 2 2 Esteban Loaiza
2376 09/14/95   9 Thu CIN D 1B RF 3 CIN 4 0 0 0 David Wells
2377 09/15/95   9 Fri SD N 2B RF 3 CHI 6 1 0 0 Frank Castillo
2378 09/15/95   9 Fri SD N 1B RF 3 CHI 8 2 0 0 Frank Castillo
2379 09/16/95   9 Sat SD N 1B RF 3 CHI 2 2 1 1 Steve Trachsel
2380 09/16/95   9 Sat SD N 1B RF 3 CHI 3 2 3 2 Steve Trachsel
2381 09/16/95   9 Sat SD N 1B RF 3 CHI 5 1 0 0 Dave Swartzbaug
2382 09/17/95   9 Sun SD D 1B RF 3 CHI 3 1 1 0 Kevin Foster
2383 09/19/95   9 Tue SD N 1B RF 3 COL 4 0 1 0 Armando Reynoso
2384 09/19/95   9 Tue SD N 1B RF 3 COL 5 0 1 0 Lance Painter
2385 09/19/95   9 Tue SD N 1B RF 3 COL 7 2 1 0 Bryan Hickerson
2386 09/20/95   9 Wed SD N 2B RF 3 COL 6 1 1 1 Bill Swift
2387 09/21/95   9 Thu LA N 2B RF 3 LA 3 1 0 0 Tom Candiotti
2388 09/21/95   9 Thu LA N 1B RF 3 LA 9 2 0 0 John Cummings
2389 09/22/95   9 Fri LA N 1B RF 3 LA 5 0 0 0 Kevin Tapani
2390 09/22/95   9 Fri LA N 1B RF 3 LA 6 2 0 0 John Cummings
2391 09/22/95   9 Fri LA N 1B RF 3 LA 8 2 0 0 Mark Guthrie
2392 09/24/95   9 Sun LA D 1B RF 3 LA 8 0 0 0 Mark Guthrie
2393 09/25/95   9 Mon SF N 1B RF 3 SF 4 0 0 0 Terry Mulhollan
2394 09/25/95   9 Mon SF N 2B RF 3 SF 7 1 2 2 Terry Mulhollan
2395 09/25/95   9 Mon SF N 1B RF 3 SF 9 2 0 0 Shawn Barton
2396 09/29/95   9 Fri SD N 2B RF 3 LA 4 0 0 0 Ismael Valdes
2397 09/29/95   9 Fri SD N 1B RF 3 LA 5 2 0 0 Ismael Valdes
2398 09/29/95   9 Fri SD N HR RF 3 LA 8 0 1 2 Ismael Valdes
2399 09/30/95   9 Sat SD N 3B RF 3 LA 1 2 0 0 Hideo Nomo
2400 09/30/95   9 Sat SD N 1B RF 3 LA 6 1 1 0 Hideo Nomo
2401 10/01/95   10 Sun SD D 2B RF 3 LA 7 0 0 0 Joey Eischen

Click to Select an Era